[[{"header":{"parameterUnit":"m.s-1","parameterCategory":1,"la1":30.2991,"la2":30.254,"lo1":-89.0895,"lo2":-89.0444,"dy":0.0017,"dx":0.0017,"nx":28,"ny":28,"refTime":"2024-05-05T21:00:00:Z","depth":0,"parameterNumber":2,"parameterNumberName":"U-component_of_WINDS"},"data":[0,0,0,0,0,0,0,0,0,0,0,0,0,0,0,0,0,0,0,0,0,0,0,0,0,0,0,0,0,0,0,0,0,0,0,0,0,0,0,0,0,0,0,0,0,0,0,0,0,0,0,0,0,0,0,0,0,0,-1.5207,-1.5207,0,-1.5188,-1.5188,-1.5188,-1.5131,-1.513,-1.5129,-1.5128,-1.5109,-1.5109,-1.511,0,0,0,0,0,0,0,0,0,0,0,0,0,-1.5197,-1.5198,-1.5207,-1.5207,-1.5207,-1.5188,-1.5188,-1.5188,-1.5131,-1.513,-1.5128,-1.5127,-1.5108,-1.5109,-1.511,0,0,0,0,0,0,0,0,0,0,0,0,0,-1.5192,-1.5198,-1.5207,-1.5177,-1.5174,-1.5188,-1.5188,-1.5188,-1.5132,-1.513,-1.5128,-1.5126,-1.5108,-1.5109,-1.511,-1.5153,0,0,-1.5113,-1.5113,0,0,0,0,0,0,0,0,-1.5193,-1.5193,-1.5181,-1.5179,-1.5175,-1.516,-1.5177,-1.5176,-1.5132,-1.5148,-1.5128,-1.5125,-1.5127,-1.5127,-1.5127,-1.5152,-1.5151,-1.5113,-1.5114,-1.5114,-1.5114,0,0,0,0,0,0,0,-1.5193,-1.5193,-1.52,-1.5181,-1.5178,-1.5164,-1.5162,-1.5177,-1.5148,-1.5146,-1.5142,-1.5141,-1.5125,-1.5126,-1.5126,-1.5151,-1.5113,-1.5114,-1.5115,-1.5115,-1.5212,-1.5214,0,0,0,0,0,0,-1.5198,-1.5194,-1.52,-1.5199,-1.518,-1.5166,-1.5163,-1.5167,-1.5148,-1.5143,-1.5142,-1.5138,-1.5126,-1.5125,-1.5125,-1.5175,-1.5114,-1.5115,-1.5116,-1.521,-1.5212,-1.5215,0,0,0,0,0,0,-1.5198,-1.5199,-1.5201,-1.5195,-1.5195,-1.5168,-1.5173,-1.5168,-1.5168,-1.5145,-1.5139,-1.5148,-1.5124,-1.5124,-1.5147,-1.5174,-1.5115,-1.5116,-1.5208,-1.5211,-1.5213,-1.5275,0,0,0,0,0,0,-1.5197,-1.5199,-1.5215,-1.5196,-1.5195,-1.5223,-1.5175,-1.5169,-1.517,-1.5164,-1.5149,-1.5145,-1.5123,-1.5146,-1.5148,-1.5174,-1.5117,-1.5205,-1.5209,-1.5213,-1.527,-1.528,-1.5288,0,0,0,0,0,-1.5197,-1.5232,-1.5216,-1.5217,-1.5214,-1.5224,-1.5224,-1.5197,-1.5172,-1.5188,-1.5173,-1.5145,-1.5171,-1.5149,-1.515,-1.5177,-1.5203,-1.5208,-1.5212,-1.5267,-1.5278,-1.5287,0,0,0,0,0,0,-1.5255,-1.5229,-1.521,-1.5241,-1.5235,-1.5215,-1.5234,-1.521,-1.5211,-1.5206,-1.5174,-1.5171,-1.5198,-1.519,-1.5166,-1.5219,-1.5182,-1.5187,-1.5223,-1.5234,-1.5242,-1.5243,-1.5118,0,0,0,0,0,-1.5271,-1.5281,-1.5258,-1.5287,-1.5285,-1.526,-1.5264,-1.5244,-1.5237,-1.5234,-1.5221,-1.5216,-1.5222,-1.5227,-1.5232,-1.5269,-1.5265,-1.5289,-1.5297,-1.5304,-1.5309,-1.5329,-1.534,-1.5229,-1.5229,-1.5229,0,0,-1.5304,-1.5292,-1.53,-1.5299,-1.5292,-1.5304,-1.5259,-1.5273,-1.5281,-1.5237,-1.5257,-1.5248,-1.524,-1.527,-1.5283,-1.5264,-1.5339,-1.531,-1.5316,-1.5317,-1.5335,-1.5345,-1.5355,-1.5232,-1.5232,-1.5231,0,0,-1.5371,-1.5362,-1.5386,-1.5381,-1.5371,-1.5354,-1.536,-1.5344,-1.5336,-1.5356,-1.5323,-1.5334,-1.5346,-1.5341,-1.5341,-1.5408,-1.5383,-1.5411,-1.5456,-1.5476,-1.5485,-1.5492,-1.5517,-1.5526,-1.5416,-1.5416,-1.5416,0,-1.5414,-1.543,-1.5401,-1.5418,-1.5418,-1.5379,-1.5403,-1.5399,-1.5392,-1.5394,-1.5373,-1.5388,-1.538,-1.5409,-1.5426,-1.5427,-1.5433,-1.5412,-1.5486,-1.5493,-1.5499,-1.5523,-1.5532,-1.542,-1.5419,-1.5419,-1.5418,0,-1.5483,-1.5495,-1.5515,-1.551,-1.5513,-1.5533,-1.5508,-1.5515,-1.5496,-1.5482,-1.5504,-1.5493,-1.5495,-1.5501,-1.5481,-1.5528,-1.5517,-1.5491,-1.5454,-1.5514,-1.5535,-1.5544,-1.5425,-1.5423,-1.5422,-1.5421,0,0,-1.5585,-1.5564,-1.5572,-1.557,-1.5557,-1.5566,-1.5585,-1.5588,-1.5594,-1.5591,-1.5607,-1.5619,-1.5596,-1.5595,-1.5576,-1.5593,-1.5649,-1.5566,-1.5565,-1.5582,-1.57,-1.572,-1.573,-1.5632,-1.5633,-1.5635,-1.5701,0,-1.5649,-1.568,-1.5655,-1.5691,-1.5702,-1.5666,-1.5682,-1.5677,-1.5665,-1.5673,-1.5659,-1.5669,-1.5637,-1.5637,-1.5652,-1.5639,-1.5672,-1.5633,-1.5647,-1.5648,-1.565,-1.5741,-1.5761,-1.5825,-1.5709,-1.571,-1.5711,0,-1.5727,-1.5728,-1.5765,-1.5751,-1.5755,-1.577,-1.5771,-1.5779,-1.5773,-1.5763,-1.5764,-1.574,-1.5758,-1.5722,-1.5748,-1.5722,-1.5727,-1.5721,-1.5723,-1.5723,-1.5683,-1.5745,-1.5844,-1.5854,-1.5724,-1.5723,-1.5722,0,-1.5798,-1.5809,-1.5832,-1.5831,-1.5816,-1.5828,-1.5822,-1.5814,-1.5817,-1.5818,-1.5821,-1.5824,-1.5826,-1.583,-1.5808,-1.5783,-1.5837,-1.5798,-1.583,-1.583,-1.5842,-1.5842,-1.5944,-1.5845,-1.5845,-1.5844,-1.5844,0,-1.5872,-1.5896,-1.5864,-1.5879,-1.5905,-1.5878,-1.5905,-1.5895,-1.5889,-1.5901,-1.587,-1.5883,-1.5853,-1.5863,-1.5846,-1.587,-1.5871,-1.5864,-1.5859,-1.5867,-1.5868,-1.5869,-1.5865,-1.5847,-1.5846,-1.5846,-1.5845,0,-1.5956,-1.5935,-1.5959,-1.5943,-1.5939,-1.596,-1.5946,-1.5959,-1.5945,-1.5962,-1.5964,-1.5943,-1.5953,-1.5932,-1.5939,-1.5927,-1.5962,-1.595,-1.5965,-1.5961,-1.5994,-1.5991,-1.6101,-1.6114,-1.6006,-1.6007,-1.6008,0,-1.6004,-1.6022,-1.6008,-1.6015,-1.6011,-1.6021,-1.6025,-1.5999,-1.6004,-1.5999,-1.6013,-1.6021,-1.6026,-1.6044,-1.6029,-1.6035,-1.6023,-1.6061,-1.6024,-1.6031,-1.6024,-1.6024,-1.6026,-1.6069,-1.607,-1.6071,-1.6072,0,-1.6093,-1.6082,-1.6089,-1.6092,-1.6098,-1.6099,-1.6098,-1.6105,-1.6077,-1.6085,-1.6095,-1.6099,-1.6107,-1.6115,-1.6118,-1.6112,-1.6088,-1.6084,-1.6092,-1.61,-1.6108,-1.6105,-1.5986,-1.6082,-1.6081,-1.608,-1.608,-1.6079,-1.6161,-1.6176,-1.6169,-1.6177,-1.6174,-1.6174,-1.6186,-1.6174,-1.6182,-1.6187,-1.6171,-1.6185,-1.618,-1.618,-1.6178,-1.6189,-1.6172,-1.6183,-1.6185,-1.6189,-1.6194,-1.6106,-1.6189,-1.6189,-1.6189,-1.6188,-1.6188,0,-1.6249,-1.6243,-1.6251,-1.6251,-1.6258,-1.6235,-1.6233,-1.6241,-1.6254,-1.625,-1.6256,-1.6269,-1.6277,-1.6263,-1.627,-1.6281,-1.627,-1.6284,-1.6283,-1.6282,-1.6209,-1.6202,-1.6292,-1.6292,-1.6292,-1.6292,-1.6292,-1.6292,-1.6295,-1.6319,-1.6308,-1.6331,-1.6324,-1.6338,-1.6339,-1.634,-1.6337,-1.6352,-1.6359,-1.635,-1.6343,-1.6349,-1.6356,-1.6352,-1.6356,-1.6373,-1.6366,-1.6297,-1.6287,-1.6277,-1.6271,-1.6374,-1.6375,-1.6438,-1.6439,-1.6439]},{"header":{"parameterUnit":"m.s-1","parameterCategory":1,"la1":30.2991,"la2":30.254,"lo1":-89.0895,"lo2":-89.0444,"dy":0.0017,"dx":0.0017,"nx":28,"ny":28,"refTime":"2024-05-05T21:00:00:Z","depth":0,"parameterNumber":3,"parameterNumberName":"V-component_of_WINDS"},"data":[0,0,0,0,0,0,0,0,0,0,0,0,0,0,0,0,0,0,0,0,0,0,0,0,0,0,0,0,0,0,0,0,0,0,0,0,0,0,0,0,0,0,0,0,0,0,0,0,0,0,0,0,0,0,0,0,0,0,2.92,2.92,0,2.9156,2.9156,2.9155,2.9129,2.9129,2.9129,2.9129,2.9081,2.908,2.9078,0,0,0,0,0,0,0,0,0,0,0,0,0,2.9259,2.9258,2.92,2.92,2.9199,2.9156,2.9156,2.9155,2.9129,2.9129,2.9129,2.9129,2.9081,2.908,2.9078,0,0,0,0,0,0,0,0,0,0,0,0,0,2.9226,2.9258,2.92,2.9181,2.9179,2.9156,2.9156,2.9155,2.9129,2.9129,2.9129,2.9129,2.9082,2.908,2.9078,2.907,0,0,2.9073,2.9072,0,0,0,0,0,0,0,0,2.9228,2.9224,2.9185,2.9183,2.918,2.9148,2.9159,2.9126,2.9129,2.9148,2.9129,2.9129,2.9103,2.9099,2.9091,2.9068,2.9065,2.9072,2.9071,2.9071,2.907,0,0,0,0,0,0,0,2.923,2.9226,2.9183,2.9184,2.9181,2.9174,2.9169,2.9152,2.9127,2.9147,2.9145,2.914,2.9102,2.9093,2.909,2.9065,2.9072,2.9071,2.907,2.9069,2.9032,2.9032,0,0,0,0,0,0,2.9236,2.9228,2.9184,2.9181,2.9204,2.9173,2.9168,2.9159,2.9127,2.9122,2.914,2.9139,2.9096,2.9092,2.9088,2.9077,2.9071,2.9069,2.9068,2.9032,2.9032,2.9032,0,0,0,0,0,0,2.9237,2.9232,2.9186,2.9204,2.9198,2.9172,2.9162,2.9158,2.9149,2.9122,2.9117,2.9136,2.9096,2.9091,2.9075,2.9075,2.9068,2.9066,2.9032,2.9032,2.9032,2.9054,0,0,0,0,0,0,2.9239,2.9233,2.923,2.9204,2.9197,2.9174,2.9162,2.9157,2.9147,2.9145,2.9117,2.9113,2.9096,2.9078,2.9073,2.9072,2.9065,2.9032,2.9032,2.9032,2.9053,2.9055,2.9056,0,0,0,0,0,2.9241,2.9237,2.923,2.9225,2.9193,2.9174,2.917,2.9151,2.9147,2.9143,2.9126,2.9113,2.9076,2.9076,2.9071,2.9069,2.9032,2.9032,2.9032,2.9052,2.9054,2.9056,0,0,0,0,0,0,2.9263,2.9233,2.9225,2.9213,2.9196,2.917,2.9165,2.9154,2.9137,2.9136,2.9113,2.9107,2.9093,2.908,2.9081,2.906,2.9052,2.9051,2.9069,2.9071,2.9073,2.9076,2.9064,0,0,0,0,0,2.9266,2.9254,2.9229,2.922,2.9213,2.919,2.9181,2.9169,2.915,2.9143,2.9124,2.9106,2.909,2.908,2.9063,2.9051,2.9044,2.9047,2.9049,2.905,2.905,2.9042,2.9043,2.9033,2.9033,2.9033,0,0,2.9273,2.9255,2.9249,2.9224,2.921,2.9197,2.9185,2.9172,2.9162,2.914,2.9125,2.9111,2.9088,2.9074,2.9067,2.9063,2.9051,2.905,2.9052,2.905,2.9042,2.9043,2.9044,2.9033,2.9033,2.9033,0,0,2.9278,2.9264,2.9256,2.9242,2.9221,2.9206,2.9204,2.918,2.917,2.9154,2.9138,2.9125,2.9098,2.9083,2.9072,2.9073,2.9061,2.9068,2.9076,2.9069,2.907,2.9071,2.9071,2.9071,2.9068,2.9068,2.9068,0,2.9289,2.927,2.9252,2.9241,2.923,2.9212,2.9202,2.9189,2.9164,2.9157,2.9152,2.9118,2.9102,2.9084,2.9085,2.9076,2.9073,2.9071,2.9072,2.9072,2.9072,2.9072,2.9072,2.9069,2.9069,2.9069,2.9069,0,2.9284,2.9271,2.9267,2.9244,2.9233,2.9223,2.9202,2.9193,2.9182,2.9167,2.9151,2.9132,2.9111,2.9106,2.9094,2.9087,2.9084,2.9076,2.9068,2.9075,2.9074,2.9074,2.907,2.907,2.907,2.9069,0,0,2.9301,2.9269,2.9268,2.9258,2.9233,2.9223,2.9212,2.9193,2.9185,2.9168,2.9158,2.9136,2.9129,2.9116,2.9102,2.9096,2.9098,2.9088,2.9087,2.9091,2.9089,2.9095,2.9096,2.909,2.909,2.909,2.9091,0,2.9303,2.9283,2.9267,2.9252,2.9241,2.9223,2.9213,2.9197,2.9183,2.917,2.9155,2.914,2.9131,2.9123,2.9117,2.91,2.9097,2.9099,2.908,2.9079,2.9086,2.9095,2.9102,2.9103,2.909,2.909,2.909,0,2.9302,2.9288,2.9273,2.925,2.9245,2.9236,2.9218,2.9206,2.9187,2.9178,2.9165,2.9151,2.9137,2.9131,2.9112,2.9113,2.9104,2.9095,2.9094,2.9092,2.9085,2.9092,2.9103,2.9103,2.909,2.909,2.909,0,2.9316,2.9293,2.9281,2.9272,2.9246,2.9241,2.9229,2.921,2.92,2.9184,2.9177,2.9159,2.9149,2.9135,2.9117,2.9114,2.9099,2.9091,2.9091,2.9091,2.9088,2.9088,2.9097,2.9083,2.9083,2.9083,2.9083,0,2.932,2.9312,2.9287,2.9279,2.9269,2.925,2.924,2.9227,2.9211,2.92,2.9183,2.9173,2.915,2.9136,2.9122,2.9108,2.9104,2.9095,2.9091,2.9097,2.9098,2.909,2.909,2.9083,2.9083,2.9083,2.9083,0,2.9334,2.9317,2.9303,2.928,2.9274,2.9267,2.9247,2.9238,2.9224,2.9211,2.9207,2.9184,2.9168,2.9148,2.9125,2.9115,2.9103,2.9097,2.911,2.9108,2.9108,2.9108,2.9112,2.9112,2.9098,2.9098,2.9098,0,2.9337,2.9331,2.9307,2.9299,2.9289,2.9276,2.9267,2.9248,2.9238,2.9216,2.9211,2.9194,2.9179,2.9154,2.9135,2.9117,2.9111,2.9113,2.9108,2.9114,2.9111,2.9111,2.911,2.9115,2.9115,2.9115,2.9115,0,2.9345,2.9338,2.9325,2.9309,2.9298,2.9284,2.927,2.9264,2.9242,2.9232,2.9216,2.9205,2.9182,2.9165,2.9145,2.9132,2.912,2.9117,2.9116,2.9121,2.9129,2.9125,2.9114,2.9117,2.9117,2.9117,2.9117,2.9117,2.9354,2.9347,2.933,2.9316,2.9304,2.9291,2.9282,2.9268,2.9254,2.9235,2.9225,2.9209,2.919,2.9163,2.9151,2.9137,2.9133,2.9131,2.9131,2.9131,2.9132,2.9132,2.9134,2.9134,2.9133,2.9133,2.9133,0,2.9361,2.935,2.9337,2.9318,2.9307,2.9298,2.9282,2.9273,2.926,2.9244,2.923,2.9212,2.9195,2.9176,2.9158,2.9151,2.9145,2.9147,2.9147,2.9144,2.9137,2.914,2.9152,2.9152,2.9152,2.9152,2.9152,2.9152,2.9364,2.9352,2.9343,2.9325,2.9312,2.9298,2.929,2.9277,2.9265,2.9245,2.9232,2.922,2.9202,2.9183,2.9168,2.9162,2.9156,2.916,2.9153,2.9147,2.9145,2.9143,2.9146,2.9159,2.9159,2.9161,2.9161,2.9161]}]]